www.pogodaiklimat.ru
ПОГОДА в Нэшвилле
Время
и дата
04:15 04.12
04:35 04.12
04:55 04.12
05:15 04.12
05:35 04.12
05:40 04.12
06:50 04.12
07:50 04.12
08:50 04.12
09:50 04.12
10:50 04.12
11:50 04.12
12:50 04.12
13:50 04.12
14:50 04.12
15:50 04.12
16:50 04.12
17:50 04.12
19:50 04.12
19:55 04.12
20:15 04.12
20:35 04.12
20:55 04.12
21:15 04.12
21:35 04.12
21:55 04.12
22:15 04.12
22:35 04.12
22:55 04.12
23:15 04.12
23:35 04.12
23:55 04.12
00:15 05.12
00:35 05.12
00:55 05.12
01:15 05.12
01:35 05.12
01:55 05.12
02:15 05.12
02:35 05.12
02:55 05.12
03:15 05.12
03:35 05.12
03:55 05.12
04:15 05.12
04:35 05.12
04:55 05.12
05:15 05.12
Ветер
(напр.,м/с)
Видим. Явления Облачность Т
(С)
Тd
(С)
f
(%)
Тe
(С)
Тes
(С)
Комфортность P
(гПа)
Po
(гПа)
Тmin
(С)
Tmax
(С)
R
(мм)
R24
(мм)
S
(см)
штиль 0 16 км ясно -1.0 -3.0 86 -2 -2 1009.3
штиль 0 16 км ясно -1.0 -3.0 86 -2 -2 1009.0
штиль 0 16 км ясно -2.0 -3.0 93 -3 -3 1009.0
штиль 0 16 км ясно -2.0 -3.0 93 -3 -3 1008.3
штиль 0 16 км ясно -2.0 -3.0 93 -3 -3 1008.6
штиль 0 16 км ясно -2.0 -3.0 93 -3 -3 1008.6
штиль 0 16 км ясно -1.0 -4.0 80 -2 -2 1009.0
З 2 16 км ясно 0.0 -2.0 86 -4 -4 1009.0
штиль 0 16 км ясно +1.0 -2.0 80 0 +1 1008.6
штиль 0 16 км ясно +2.0 -2.0 75 +1 +4 1008.6
СЗ 2 16 км ясно +3.0 -2.0 70 0 +4 1009.0
З 2 16 км ясно +3.0 -1.0 75 0 +6 1008.0
штиль 0 16 км ясно +4.0 -1.0 70 +3 +11 опасность
простуды
1006.3
штиль 0 16 км 10/0 2400 m
[Ac]
+5.0 -1.0 65 +4 +7 1005.3
штиль 0 16 км 10/0 2400 m
[Ac]
+6.0 -1.0 61 +5 +7 1004.6
штиль 0 16 км 10/0 2400 m
[Ac]
+6.0 -1.0 61 +5 +6 1004.3
В 2 16 км 5/0 2400 m
[Ac]
+5.0 -1.0 65 +3 +3 1003.6
штиль 0 16 км ясно +3.0 -1.0 75 +2 +2 1004.0
штиль 0 16 км ясно +2.0 -1.0 80 +1 +1 1003.6
штиль 0 16 км ясно +2.0 -1.0 80 +1 +1 1003.6
штиль 0 16 км ясно +2.0 -1.0 80 +1 +1 1003.3
штиль 0 16 км ясно +2.0 0.0 87 +1 +1 1003.3
штиль 0 16 км ясно +1.0 -1.0 86 0 0 1003.3
штиль 0 16 км ясно +1.0 0.0 93 0 0 1003.3
штиль 0 16 км ясно +1.0 0.0 93 0 0 1003.0
штиль 0 16 км ясно 0.0 -1.0 93 -1 -1 1003.0
штиль 0 16 км ясно 0.0 -1.0 93 -1 -1 1003.0
штиль 0 16 км ясно 0.0 -1.0 93 -1 -1 1003.0
штиль 0 16 км ясно 0.0 -1.0 93 -1 -1 1002.6
СВ 2 16 км ясно 0.0 -1.0 93 -4 -4 1002.3
СВ 2 16 км ясно -1.0 -2.0 93 -5 -5 1002.3
СВ 2 16 км ясно -1.0 -2.0 93 -5 -5 1001.6
штиль 0 16 км ясно -1.0 -2.0 93 -2 -2 1001.3
штиль 0 16 км ясно -1.0 -2.0 93 -2 -2 1001.3
СВ 2 16 км ясно -1.0 -2.0 93 -5 -5 1001.0
штиль 0 16 км ясно -1.0 -2.0 93 -2 -2 1001.0
штиль 0 16 км ясно -1.0 -2.0 93 -2 -2 1001.0
СВ 2 16 км ясно -1.0 -1.0 100 -5 -5 1000.6
СВ 2 16 км ясно -1.0 -1.0 100 -5 -5 1000.6
В 2 16 км ясно 0.0 0.0 100 -4 -4 1000.3
СВ 3 16 км ясно +1.0 0.0 93 -4 -4 1000.0
штиль 0 16 км ясно +1.0 0.0 93 0 0 1000.3
В 2 16 км ясно +1.0 0.0 93 -3 -3 1000.0
штиль 0 16 км ясно +1.0 0.0 93 0 0 999.6
штиль 0 16 км ясно +1.0 0.0 93 0 0 999.3
СВ 2 16 км ясно +1.0 +1.0 100 -3 -3 999.3
штиль 0 16 км ясно +2.0 +1.0 93 +1 +1 999.3
СВ 2 16 км ясно +2.0 +1.0 93 -1 -1 999.3
Местоположение метеостанции John C Tune Airport: широта 36.1852 долгота -86.8833 высота над уровнем моря 149 м.
В архиве по умолчанию представлена погода в Нэшвилле за последние 1-2 суток. Обновление информации о фактической погоде в базе происходит ежечасно! Архивные данные за месяц целиком и за предыдущие месяцы Вы можете получить, выбрав интересующий диапазон дат из раскрывающегося списка и нажав кнопку "Ввод!".
Внимание! Архив погоды МЕТАР в базе сайта по станциям, не включенным в климатический монитор, хранится не более 60 дней. Нет смысла пытаться выбрать более раннюю дату.
*Определитесь, кто Вы:
Внимание! Время в таблицах - местное (без учета летнего времени). Для получения всемирного времени необходимо вычесть поправку, которая равна -6 ч.
Смотрите также архив погоды в соседних городах и на ближайших метеорологических станциях:
Партнеры нашего сайта:      
Пояснения к столбцам:
  • Ветер - указаны скорость ветра в м/с - средняя за 10 мин, порывы в срок и между сроками (в фигурных скобках) и направление, откуда дует ветер: С - северный,
  • СВ - северо-восточный, В - восточный, ЮВ - юго-восточный, Ю - южный, ЮЗ - юго-западный, З - западный, СЗ - северо-западный.
  • Видимость - горизонтальная дальность видимости в метрах или километрах. При видимости от 1 до 10 км при отсутствии осадков обычно наблюдается дымка, при ухудшении видимости до 1 км и менее - туман. В сухую погоду видимость может ухудшаться дымом, пылью или мглою.
  • Явления - указаны атмосферные явления, наблюдавшиеся в срок или в последний час перед сроком; фигурными скобками обозначены явления, наблюдавшиеся между сроками (за 1-3 часа до срока); квадратными скобками обозначены град или гололедные отложения с указанием их диаметра в мм.
  • Облачность - указаны через наклонную черту общая и нижняя облачность в баллах и высота нижней границы облаков в метрах; квадратными скобками обозначены формы облаков: Ci - перистые, Cs - перисто-слоистые, Cc - перисто-кучевые, Ac - высококучевые, As - высокослоистые, Sc - слоисто-кучевые, Ns - слоисто-дождевые, Cu - кучевые, Cb - кучево-дождевые. Подробнее классификацию облаков см. в Атласе облаков (PDF).
  • T - Температура воздуха - температура, измеренная на высоте 2 м над землей.
  • Td - Температура точки росы - температура, при понижении до которой содержащийся в воздухе водяной пар достигнет насыщения.
  • f - Относительная влажность воздуха - влажноcть воздуха, измеренная на высоте 2 м над землей.
  • Te - Эффективная температура - температура, которую ощущает одетый по сезону человек в тени. Характеристика душности погоды. При расчете учитывается влияние влажности воздуха и скорости ветра на теплоощущения человека.
  • Tes - Эффективная температура на солнце - температура, которую ощущает человек, с поправкой на солнечный нагрев. Характеристика знойности погоды. Зависит от высоты солнца над горизонтом, облачности и скорости ветра. Ночью, в пасмурную погоду, а также при ветре 12 м/с и более поправка равна нулю.
  • P - Атмосферное давление - приведенное к уровню моря атмосферное давление.
  • Po - Атмосферное давление - измеренное на уровне метеостанции атмосферное давление.
  • Tmin - Минимальная температура - минимум температуры воздуха на высоте 2 м над землей.
  • Tmax - Максимальная температура - максимум температуры воздуха на высоте 2 м над землей.
  • R - Количество осадков - Количество выпавших осадков за период времени, мм. При наведении курсора мыши на число - период времени, за который выпало указанное количество осадков.
  • R24 - Количество осадков - Количество выпавших осадков за 24 часа, мм.
  • S - Снежный покров - Высота снежного покрова, см. При наведении курсора мыши на число - состояние снежного покрова и степень покрытия местности в баллах.